GIRYN EGHR-EGHH

Flight info

Callsign GIRYN
Flight time 0h 37m
Altitude 3000
Route EGHR VNH EGHH
Aircraft P28A/L-V/N

Departure

Time 2026-04-26 09:23
Airport Goodwood Aerodrome (EGHR)

Arrival

Time 2026-04-26 10:00
Airport Bournemouth Airport (EGHH)
Time Latitude Longitude Altitude Speed Heading
2026-04-26 09:13 50.85822 -0.75590 103 ft 0 kts 82°
2026-04-26 09:19 50.85832 -0.75579 105 ft 4 kts
2026-04-26 09:19 50.85870 -0.75637 103 ft 12 kts 310°
2026-04-26 09:20 50.85967 -0.75786 103 ft 28 kts 317°
2026-04-26 09:20 50.86103 -0.75981 103 ft 17 kts 322°
2026-04-26 09:20 50.86199 -0.76108 103 ft 19 kts 321°
2026-04-26 09:20 50.86276 -0.76194 104 ft 9 kts 316°
2026-04-26 09:21 50.86278 -0.76269 105 ft 0 kts 255°
2026-04-26 09:21 50.86278 -0.76270 105 ft 1 kts 254°
2026-04-26 09:21 50.86256 -0.76331 105 ft 10 kts 199°
2026-04-26 09:21 50.86217 -0.76327 105 ft 0 kts 140°
2026-04-26 09:22 50.86203 -0.76308 105 ft 17 kts 139°
2026-04-26 09:22 50.85983 -0.76001 102 ft 65 kts 140°
2026-04-26 09:22 50.85607 -0.75524 266 ft 70 kts 131°
2026-04-26 09:23 50.85203 -0.75063 501 ft 73 kts 150°
2026-04-26 09:23 50.84702 -0.75064 763 ft 80 kts 198°
2026-04-26 09:23 50.84224 -0.75590 980 ft 91 kts 215°
2026-04-26 09:23 50.83729 -0.76244 1235 ft 98 kts 214°
2026-04-26 09:24 50.83241 -0.77008 1470 ft 101 kts 219°
2026-04-26 09:24 50.82808 -0.77916 1661 ft 106 kts 234°
2026-04-26 09:24 50.82787 -0.79126 1769 ft 116 kts 287°
2026-04-26 09:24 50.83037 -0.80255 1928 ft 104 kts 289°
2026-04-26 09:25 50.83266 -0.81376 1937 ft 107 kts 281°
2026-04-26 09:25 50.83211 -0.82497 2097 ft 102 kts 246°
2026-04-26 09:25 50.82968 -0.83564 2206 ft 102 kts 245°
2026-04-26 09:25 50.82767 -0.84596 2226 ft 96 kts 244°
2026-04-26 09:26 50.82571 -0.85587 2291 ft 94 kts 245°
2026-04-26 09:26 50.82365 -0.86564 2361 ft 93 kts 241°
2026-04-26 09:26 50.82055 -0.87462 2408 ft 95 kts 231°
2026-04-26 09:26 50.81698 -0.88351 2560 ft 96 kts 227°
2026-04-26 09:27 50.81274 -0.89158 2777 ft 97 kts 220°
2026-04-26 09:27 50.80810 -0.89956 2907 ft 99 kts 219°
2026-04-26 09:27 50.80328 -0.90764 3019 ft 101 kts 220°
2026-04-26 09:27 50.80233 -0.90926 3047 ft 100 kts 219°
2026-04-26 09:28 50.79770 -0.91708 3101 ft 99 kts 219°
2026-04-26 09:28 50.79270 -0.92493 3094 ft 99 kts 216°
2026-04-26 09:28 50.78786 -0.93242 3075 ft 99 kts 216°
2026-04-26 09:28 50.78305 -0.94020 3137 ft 97 kts 218°
2026-04-26 09:29 50.77849 -0.94819 3206 ft 101 kts 219°
2026-04-26 09:29 50.77360 -0.95609 3241 ft 99 kts 216°
2026-04-26 09:29 50.76855 -0.96376 3206 ft 100 kts 212°
2026-04-26 09:29 50.76325 -0.97020 3208 ft 97 kts 206°
2026-04-26 09:30 50.75783 -0.97646 3202 ft 95 kts 206°
2026-04-26 09:30 50.75233 -0.98232 3179 ft 95 kts 204°
2026-04-26 09:30 50.74673 -0.98782 3177 ft 94 kts 203°
2026-04-26 09:30 50.74116 -0.99338 3143 ft 96 kts 203°
2026-04-26 09:31 50.73556 -0.99868 3160 ft 93 kts 201°
2026-04-26 09:31 50.72987 -1.00390 3130 ft 95 kts 202°
2026-04-26 09:31 50.72424 -1.00892 3156 ft 92 kts 199°
2026-04-26 09:31 50.71851 -1.01378 3132 ft 93 kts 200°
2026-04-26 09:32 50.71294 -1.01914 3106 ft 95 kts 203°
2026-04-26 09:32 50.70911 -1.02318 3090 ft 95 kts 205°
2026-04-26 09:32 50.70630 -1.02619 3082 ft 94 kts 205°
2026-04-26 09:32 50.70111 -1.03280 3067 ft 98 kts 217°
2026-04-26 09:33 50.69656 -1.04082 3079 ft 97 kts 220°
2026-04-26 09:33 50.69188 -1.04875 3051 ft 99 kts 217°
2026-04-26 09:33 50.68725 -1.05661 3059 ft 98 kts 218°
2026-04-26 09:33 50.68274 -1.06468 3061 ft 98 kts 221°
2026-04-26 09:34 50.67837 -1.07301 3058 ft 99 kts 222°
2026-04-26 09:34 50.67391 -1.08120 3105 ft 99 kts 220°
2026-04-26 09:34 50.66925 -1.08958 3128 ft 103 kts 221°
2026-04-26 09:34 50.66474 -1.09832 3204 ft 102 kts 223°
2026-04-26 09:35 50.66027 -1.10725 3253 ft 104 kts 224°
2026-04-26 09:35 50.65564 -1.11637 3262 ft 108 kts 225°
2026-04-26 09:35 50.65107 -1.12590 3257 ft 111 kts 226°
2026-04-26 09:35 50.64669 -1.13570 3292 ft 109 kts 227°
2026-04-26 09:36 50.64254 -1.14590 3299 ft 110 kts 231°
2026-04-26 09:36 50.63852 -1.15609 3298 ft 112 kts 229°
2026-04-26 09:36 50.63431 -1.16661 3286 ft 114 kts 230°
2026-04-26 09:36 50.63005 -1.17728 3387 ft 115 kts 233°
2026-04-26 09:37 50.62756 -1.18916 3477 ft 116 kts 250°
2026-04-26 09:37 50.62649 -1.19747 3495 ft 116 kts 255°
2026-04-26 09:37 50.62530 -1.21012 3458 ft 118 kts 261°
2026-04-26 09:37 50.62441 -1.22276 3525 ft 116 kts 262°
2026-04-26 09:38 50.62414 -1.23554 3513 ft 118 kts 267°
2026-04-26 09:38 50.62463 -1.24813 3542 ft 115 kts 275°
2026-04-26 09:38 50.62642 -1.26479 3531 ft 118 kts 276°
2026-04-26 09:38 50.62745 -1.27358 3459 ft 123 kts 278°
2026-04-26 09:39 50.62940 -1.28646 3437 ft 120 kts 283°
2026-04-26 09:39 50.63151 -1.29885 3377 ft 120 kts 285°
2026-04-26 09:39 50.63479 -1.31076 3381 ft 117 kts 298°
2026-04-26 09:39 50.63820 -1.32244 3375 ft 119 kts 294°
2026-04-26 09:40 50.64097 -1.33419 3446 ft 111 kts 287°
2026-04-26 09:40 50.64335 -1.34613 3280 ft 116 kts 284°
2026-04-26 09:40 50.64552 -1.35840 3221 ft 118 kts 282°
2026-04-26 09:40 50.64747 -1.37110 3214 ft 121 kts 281°
2026-04-26 09:41 50.64921 -1.38400 3260 ft 118 kts 277°
2026-04-26 09:41 50.64990 -1.39669 3280 ft 118 kts 270°
2026-04-26 09:41 50.65049 -1.40947 3261 ft 115 kts 272°
2026-04-26 09:41 50.65145 -1.42227 3092 ft 122 kts 274°
2026-04-26 09:42 50.65291 -1.43523 3059 ft 116 kts 278°
2026-04-26 09:42 50.65408 -1.44806 2906 ft 116 kts 275°
2026-04-26 09:42 50.65485 -1.46061 2887 ft 114 kts 272°
2026-04-26 09:42 50.65551 -1.47284 2801 ft 110 kts 272°
2026-04-26 09:43 50.65621 -1.48498 2588 ft 114 kts 270°
2026-04-26 09:43 50.65659 -1.49750 2412 ft 113 kts 266°
2026-04-26 09:43 50.65678 -1.50987 2247 ft 113 kts 266°
2026-04-26 09:43 50.65703 -1.52227 2105 ft 113 kts 269°
2026-04-26 09:44 50.65713 -1.53459 1973 ft 111 kts 265°
2026-04-26 09:44 50.65701 -1.54677 1781 ft 113 kts 265°
2026-04-26 09:44 50.65716 -1.55928 1580 ft 116 kts 269°
2026-04-26 09:44 50.65742 -1.57208 1353 ft 116 kts 269°
2026-04-26 09:45 50.65857 -1.58417 1274 ft 113 kts 291°
2026-04-26 09:45 50.66410 -1.59353 1285 ft 118 kts 342°
2026-04-26 09:45 50.67156 -1.59366 1521 ft 101 kts 21°
2026-04-26 09:45 50.67809 -1.59102 1779 ft 95 kts 24°
2026-04-26 09:46 50.68439 -1.58839 2016 ft 95 kts 22°
2026-04-26 09:46 50.69062 -1.58535 2255 ft 92 kts 26°
2026-04-26 09:46 50.69674 -1.58209 2451 ft 95 kts 30°
2026-04-26 09:46 50.70258 -1.57774 2661 ft 91 kts 39°
2026-04-26 09:47 50.70788 -1.57232 2831 ft 91 kts 44°
2026-04-26 09:47 50.71305 -1.56671 2938 ft 91 kts 44°
2026-04-26 09:47 50.71816 -1.56078 3021 ft 90 kts 44°
2026-04-26 09:47 50.72330 -1.55498 3088 ft 93 kts 47°
2026-04-26 09:48 50.72807 -1.54851 3177 ft 88 kts 50°
2026-04-26 09:48 50.73285 -1.54190 3195 ft 94 kts 49°
2026-04-26 09:48 50.73823 -1.53625 3390 ft 94 kts 36°
2026-04-26 09:48 50.74417 -1.53172 3513 ft 96 kts 32°
2026-04-26 09:49 50.75059 -1.52793 3576 ft 99 kts 29°
2026-04-26 09:49 50.75693 -1.52445 3654 ft 97 kts 25°
2026-04-26 09:49 50.76351 -1.52147 3694 ft 96 kts 23°
2026-04-26 09:49 50.77017 -1.51828 3680 ft 101 kts 26°
2026-04-26 09:50 50.77690 -1.51643 3774 ft 102 kts
2026-04-26 09:50 50.78402 -1.51762 3799 ft 105 kts 353°
2026-04-26 09:50 50.79120 -1.52067 3763 ft 108 kts 347°
2026-04-26 09:50 50.79838 -1.52435 3690 ft 110 kts 346°
2026-04-26 09:51 50.80537 -1.52826 3630 ft 104 kts 344°
2026-04-26 09:51 50.81237 -1.53193 3479 ft 107 kts 345°
2026-04-26 09:51 50.81911 -1.53703 3356 ft 108 kts 332°
2026-04-26 09:51 50.82542 -1.54318 3218 ft 108 kts 332°
2026-04-26 09:52 50.83129 -1.55053 3093 ft 106 kts 315°
2026-04-26 09:52 50.83742 -1.57109 2793 ft 108 kts 272°
2026-04-26 09:52 50.83606 -1.58216 2545 ft 99 kts 236°
2026-04-26 09:53 50.83355 -1.59213 2463 ft 95 kts 244°
2026-04-26 09:53 50.83126 -1.60146 2461 ft 87 kts 225°
2026-04-26 09:53 50.82646 -1.60623 2316 ft 84 kts 193°
2026-04-26 09:53 50.82092 -1.61016 2205 ft 88 kts 204°
2026-04-26 09:54 50.81694 -1.61745 2218 ft 88 kts 230°
2026-04-26 09:54 50.81430 -1.62610 2192 ft 87 kts 233°
2026-04-26 09:54 50.81163 -1.63480 2151 ft 87 kts 237°
2026-04-26 09:54 50.80913 -1.64343 2144 ft 84 kts 236°
2026-04-26 09:55 50.80704 -1.65215 1985 ft 90 kts 245°
2026-04-26 09:55 50.80492 -1.66134 1806 ft 88 kts 239°
2026-04-26 09:55 50.80271 -1.67026 1655 ft 87 kts 242°
2026-04-26 09:55 50.80108 -1.67943 1524 ft 84 kts 245°
2026-04-26 09:56 50.79946 -1.68832 1421 ft 86 kts 253°
2026-04-26 09:56 50.79914 -1.69783 1368 ft 86 kts 270°
2026-04-26 09:56 50.79948 -1.70716 1328 ft 86 kts 268°
2026-04-26 09:56 50.79968 -1.71639 1239 ft 82 kts 264°
2026-04-26 09:57 50.79937 -1.72522 1169 ft 80 kts 256°
2026-04-26 09:57 50.79846 -1.73398 1116 ft 80 kts 254°
2026-04-26 09:57 50.79706 -1.74279 1073 ft 87 kts 253°
2026-04-26 09:57 50.79565 -1.75236 1089 ft 89 kts 252°
2026-04-26 09:58 50.79434 -1.76180 1113 ft 87 kts 250°
2026-04-26 09:58 50.79283 -1.77098 1055 ft 86 kts 247°
2026-04-26 09:58 50.79127 -1.78016 977 ft 87 kts 249°
2026-04-26 09:58 50.78956 -1.78942 858 ft 90 kts 246°
2026-04-26 09:59 50.78780 -1.79895 698 ft 88 kts 252°
2026-04-26 09:59 50.78603 -1.80801 492 ft 85 kts 248°
2026-04-26 09:59 50.78451 -1.81683 332 ft 87 kts 247°
2026-04-26 09:59 50.78282 -1.82639 95 ft 91 kts 248°
2026-04-26 10:00 50.78138 -1.83522 39 ft 71 kts 242°
2026-04-26 10:00 50.78016 -1.84151 37 ft 51 kts 258°
2026-04-26 10:00 50.77964 -1.84496 38 ft 22 kts 263°
2026-04-26 10:00 50.77992 -1.84710 41 ft 19 kts 290°
2026-04-26 10:01 50.78044 -1.84859 40 ft 7 kts 309°
2026-04-26 10:01 50.78107 -1.84897 40 ft 14 kts 20°
2026-04-26 10:01 50.78128 -1.84816 40 ft 7 kts 87°
2026-04-26 10:01 50.78141 -1.84740 40 ft 10 kts 68°
2026-04-26 10:02 50.78215 -1.84640 40 ft 17 kts 36°
2026-04-26 10:02 50.78290 -1.84522 39 ft 14 kts 57°
2026-04-26 10:02 50.78333 -1.84404 39 ft 14 kts 67°
2026-04-26 10:02 50.78370 -1.84220 39 ft 20 kts 79°
2026-04-26 10:03 50.78379 -1.84077 38 ft 7 kts 79°
2026-04-26 10:03 50.78457 -1.84079 38 ft 18 kts 348°
2026-04-26 10:03 50.78599 -1.84124 38 ft 11 kts 356°
2026-04-26 10:03 50.78621 -1.84060 38 ft 0 kts 78°